User: anonymous   Login
Location: Unspecified
(0.0000°N, 0.0000°E)
Time: 23:32:31
(UTC+00:00)
Language:

CHEOPS - Orbit

View from above orbital plane
View from above orbital plane
View from above satellite
View from above satellite

Ground track
Ground track

The orbit is defined by the following mean orbital elements,

1 44874U          26145.49875231 +.00000000 +00000-0 +65241-4 0 00009
2 44874  98.1510 334.0845 0010832 163.9360 196.2187 14.61946440    05
Epoch (UTC): 25 May 2026 11:58:12
Eccentricity: 0.0010832
inclination: 98.1510°
perigee height: 679 km
apogee height: 695 km
right ascension of ascending node: 334.0845°
argument of perigee: 163.9360°
revolutions per day: 14.61946440
mean anomaly at epoch: 196.2187°

The dashed part of the orbit path shows where the satellite is in the earth's shadow,  

DLR